EW5043 Weather Reports


time (UTC)temp
F
wind
direction
speed
knots
gust
knots
rain 1hr
in
rain 24hr
in
rain mn
in
humidity
%
barometer
mb
20260901080055 69 172 2.6 0.0 0.00 0.00 0.12 100 1011.6
20260901074545 69 172 0.9 0.0 0.00 0.00 0.12 100 1011.9
20260901073037 69 178 5.2 0.0 0.00 0.00 0.12 100 1012.1
20260901070024 69 188 5.2 0.0 0.00 0.00 0.12 100 1012.3
20260901064611 69 181 6.1 0.0 0.00 0.00 0.12 100 1012.6
20260901063006 69 180 6.1 0.0 0.00 0.00 0.11 100 1012.8
20260901060144 69 175 5.2 0.0 0.00 0.00 0.01 100 1013.1
20260901054536 69 179 5.2 0.0 0.00 0.00 0.00 100 1013.2
20260901053026 69 179 6.1 0.0 0.00 0.00 0.00 100 1013.3
20260901051516 69 181 6.1 0.0 0.00 0.00 0.00 100 1013.4
20260901050006 69 176 4.3 0.0 0.00 0.00 0.00 100 1013.7
20260901044557 69 168 4.3 0.0 0.00 0.00 0.00 100 1013.5
20260901043147 69 177 0.9 0.0 0.00 0.00 0.00 100 1013.4
20260901041547 69 173 4.3 0.0 0.00 0.00 0.00 100 1013.6
20260901040029 69 171 1.7 0.0 0.00 0.00 0.00 100 1013.9
20260901034524 69 170 0.9 0.0 0.00 0.00 0.02 100 1014.0
20260901033110 69 170 3.5 0.0 0.00 0.00 0.02 100 1014.0
20260901031601 69 170 4.3 0.0 0.00 0.00 0.02 100 1014.1
20260901030153 69 170 5.2 0.0 0.00 0.00 0.02 100 1014.1
20260901024643 69 173 3.5 0.0 0.00 0.00 0.02 100 1014.3
20260901023135 69 173 4.3 0.0 0.00 0.00 0.02 100 1014.4
20260901021528 69 173 3.5 0.0 0.00 0.00 0.02 100 1014.1
20260901020016 69 178 3.5 0.0 0.00 0.00 0.01 100 1014.2
20260901014507 69 172 2.6 0.0 0.00 0.00 0.01 100 1014.2
20260901013200 69 169 3.5 0.0 0.00 0.00 0.01 100 1014.2
20260901011550 69 172 1.7 0.0 0.00 0.00 0.01 100 1014.4
20260901010044 69 171 0.0 0.0 0.00 0.00 0.01 100 1014.5
20260901004530 69 171 0.0 0.0 0.00 0.00 0.01 100 1014.6
20260901003023 69 171 1.7 0.0 0.00 0.00 0.01 100 1014.3
20260901001512 69 174 4.3 0.0 0.00 0.00 0.01 100 1014.3
20260901000004 69 174 5.2 0.0 0.00 0.00 0.01 100 1014.2
20260831234555 69 165 4.3 0.0 0.00 0.00 0.01 100 1014.2
20260831233047 69 173 4.3 0.0 0.00 0.00 0.01 100 1014.3
20260831231545 69 171 1.7 0.0 0.00 0.00 0.01 100 1014.3
20260831230037 69 169 5.2 0.0 0.00 0.00 0.01 100 1014.6
20260831224620 69 173 4.3 0.0 0.00 0.00 0.01 100 1014.5
20260831223010 70 169 3.5 0.0 0.00 0.00 0.01 100 1014.5
20260831221500 70 175 6.1 0.0 0.00 0.00 0.01 100 1014.4
20260831220051 70 175 5.2 0.0 0.00 0.00 0.01 100 1014.7
20260831214642 70 162 3.5 0.0 0.00 0.00 0.01 100 1014.8
20260831213036 70 172 2.6 0.0 0.00 0.00 0.01 100 1014.7
20260831211531 71 174 4.3 0.0 0.00 0.00 0.01 100 1014.8
20260831210116 71 176 4.3 0.0 0.00 0.00 0.01 100 1014.9
20260831204510 71 180 5.2 0.0 0.00 0.00 0.01 100 1015.0
20260831203059 71 182 6.1 0.0 0.00 0.00 0.01 100 1015.1
20260831201549 72 173 7.0 0.0 0.00 0.00 0.01 100 1015.2
20260831200039 72 192 7.0 0.0 0.00 0.00 0.01 100 1015.3
20260831194530 72 175 6.1 0.0 0.00 0.00 0.01 100 1015.3
20260831193123 72 194 7.0 0.0 0.00 0.00 0.01 100 1015.4
20260831191511 72 182 7.0 0.0 0.00 0.00 0.01 100 1015.5
20260831184555 72 180 7.0 0.0 0.00 0.00 0.01 100 1015.7
20260831183045 71 182 7.8 0.0 0.00 0.00 0.01 100 1015.7
20260831181537 71 188 6.1 0.0 0.00 0.00 0.01 100 1015.9
20260831180028 71 179 8.7 0.0 0.00 0.00 0.01 100 1016.0
20260831174618 70 184 7.8 0.0 0.00 0.00 0.01 100 1016.5
20260831171601 70 187 9.6 0.0 0.00 0.00 0.01 100 1016.5
20260831170050 70 193 9.6 0.0 0.00 0.00 0.01 100 1016.7
20260831164642 70 182 8.7 0.0 0.00 0.00 0.01 100 1016.8
20260831163034 69 192 8.7 0.0 0.00 0.00 0.01 100 1016.9
20260831161531 69 185 8.7 0.0 0.00 0.00 0.01 100 1017.0
20260831154610 69 178 7.0 0.0 0.00 0.00 0.01 100 1017.5
20260831153158 69 184 7.0 0.0 0.00 0.00 0.01 100 1017.5
20260831151551 69 172 7.0 0.0 0.00 0.00 0.01 100 1017.4
20260831150040 68 180 7.8 0.0 0.00 0.00 0.01 100 1017.3
20260831144531 68 176 7.8 0.0 0.00 0.00 0.01 100 1017.1
20260831143022 68 182 7.0 0.0 0.00 0.00 0.01 100 1017.2
20260831141513 68 182 6.1 0.0 0.00 0.00 0.01 100 1017.3
20260831140107 68 174 5.2 0.0 0.00 0.00 0.00 100 1017.5
20260831134555 67 168 4.3 0.0 0.00 0.00 0.00 100 1017.0
20260831131548 67 186 6.1 0.0 0.00 0.00 0.00 100 1016.9
20260831130027 67 179 4.3 0.0 0.00 0.00 0.00 100 1017.3
20260831123011 66 175 7.0 0.0 0.00 0.00 0.00 100 1017.1
20260831121606 66 179 4.3 0.0 0.00 0.00 0.00 100 1017.5
20260831120051 66 177 5.2 0.0 0.00 0.00 0.00 100 1017.4
20260831114642 66 173 5.2 0.0 0.00 0.00 0.00 100 1017.6
20260831113133 66 176 6.1 0.0 0.00 0.00 0.00 100 1017.4
20260831111522 66 184 5.2 0.0 0.00 0.00 0.00 100 1017.5
20260831110013 66 181 2.6 0.0 0.00 0.00 0.00 100 1017.5
20260831104509 66 181 4.3 0.0 0.00 0.00 0.00 100 1017.2
20260831103054 66 180 3.5 0.0 0.00 0.00 0.00 100 1017.2
20260831101644 66 184 3.5 0.0 0.00 0.00 0.00 100 1017.2
20260831100137 65 180 1.7 0.0 0.00 0.00 0.00 100 1017.2
20260831094629 65 180 1.7 0.0 0.00 0.00 0.00 100 1017.3
20260831093018 66 182 3.5 0.0 0.00 0.00 0.00 100 1017.1
20260831091612 66 175 5.2 0.0 0.00 0.00 0.00 100 1017.0
20260831090200 66 175 4.3 0.0 0.00 0.00 0.00 100 1017.0
20260831084650 65 187 2.6 0.0 0.00 0.00 0.00 100 1017.1
20260831083044 65 190 2.6 0.0 0.00 0.00 0.00 100 1017.1
20260831081634 65 190 1.7 0.0 0.00 0.00 0.00 100 1017.2